Regional Weather Roundup
Issued by NWS

Home | Current Version | Previous Version | Graphics & Text | Print | Product List | Glossary On
Versions: 1 2 3 4 5 6 7 8 9 10 11 12 13 14 15 16 17 18 19 20 21 22 23 24 25 26 27 28 29 30 31 32 33 34 35 36 37 38 39 40 41 42 43 44 45 46 47 48 49 50
000
ASUS43 KLOT 150203
RWRIL

ILLINOIS REGIONAL WEATHER ROUNDUP
NATIONAL WEATHER SERVICE CHICAGO/ROMEOVILLE IL
800 PM CST THU DEC 14 2017

NOTE: "FAIR" INDICATES FEW OR NO CLOUDS BELOW 12,000 FEET WITH NO
SIGNIFICANT WEATHER AND/OR OBSTRUCTIONS TO VISIBILITY.

* THESE STATIONS ARE NOT UNDER NWS QUALITY CONTROL. THEY ALSO MAY NOT
  REPORT WEATHER SUCH AS PRECIPITATION OR FOG.

ILZ001-002-007-009-015-016-024-150300-
NORTHWEST ILLINOIS

CITY           SKY/WX    TMP DP  RH WIND       PRES   REMARKS
MOLINE         CLOUDY    27  17  66 W9        30.09S WCI  18
STERLING*      CLOUDY    23  17  78 MISG        N/A
SAVANNA*       CLOUDY    26  16  66 W9        30.08S WCI  16
$$

ILZ003-004-008-010-011-017-018-150300-
NORTH CENTRAL ILLINOIS

CITY           SKY/WX    TMP DP  RH WIND       PRES   REMARKS
ROCKFORD       MOCLDY    16   9  74 S5        30.08S WCI   9
FREEPORT*      MOCLDY    17   9  70 S9        30.07S WCI   5
ROCHELLE*      CLEAR     11   7  81 SW5       30.07F WCI   3
PERU*          CLEAR     18   9  68 CALM      30.10S
$$

ILZ005-006-012>014-019>023-150300-
NORTHEAST ILLINOIS

CITY           SKY/WX    TMP DP  RH WIND       PRES   REMARKS
CHICAGO-OHARE  PTCLDY    21  11  65 SW3       30.06F
CHICAGO-MIDWAY PTCLDY    22  11  62 W5        30.08S WCI  16
AURORA         CLEAR     19  10  68 SW5       30.08S WCI  12
LANSING*       CLEAR     21  11  67 W3        30.08F
JOLIET*        CLEAR     19  11  72 CALM      30.09F
WAUKEGAN       CLOUDY    15  10  80 VRB3      30.05S
DUPAGE AIRPORT CLEAR     15  12  88 SW5       30.06S WCI   8
WHEELING       MOCLDY    22  12  65 SW3       30.08S
NORTHERLY ISL    N/A     24  11  57 W2          N/A
$$

LMZ740>746-150300-
SOUTHERN LAKE MICHIGAN

STATION/POSITION SKY/WX   TEMP    WIND        PRES    VSBY  WAVE
                          AIR SEA DIR/SP/G                  HT/PER
                          (F)     (DEG/KT/KT) (MB)    (MI)  (FT/S)
HARRISON CRIB              26     270/  9/ 10   N/A
BURNHAM HARBOR             25     300/  8       N/A
CALUMET HARBOR             23     250/  3/  6 1018.0S
BURNS HARBOR               26     220/  7/ 11 1019.0S
MICHIGAN CITY              25     190/  9/ 11   N/A
$$

ILZ025>027-034>036-040-047-049-050-058-095>099-150300-
WEST-CENTRAL ILLINOIS

CITY           SKY/WX    TMP DP  RH WIND       PRES   REMARKS
QUINCY         CLOUDY    28  19  69 SW3       30.11S
MACOMB*        CLOUDY    28  19  67 NW5       30.13S WCI  23
PITTSFIELD*    CLOUDY    29  19  65 W6        30.13S WCI  23
$$

ILZ028>032-037-038-041>044-048-051>054-059>061-150300-
CENTRAL ILLINOIS

CITY           SKY/WX    TMP DP  RH WIND       PRES   REMARKS
BLOOMINGTON    CLOUDY    22  13  68 NW3       30.10S
DECATUR        CLOUDY    26  15  63 W6        30.11R WCI  19
PEORIA         CLOUDY    24  14  65 CALM      30.11S
LACON*         CLOUDY    16  11  81 CALM      30.10S
LINCOLN*       CLOUDY    27  18  69 CALM      30.11S
SPRINGFIELD    CLOUDY    28  17  63 W5        30.12S WCI  23
TAYLORVILLE    NOT AVBL
$$

ILZ033-039-045-046-055>057-062-063-150300-
EAST-CENTRAL ILLINOIS

CITY           SKY/WX    TMP DP  RH WIND       PRES   REMARKS
CHAMPAIGN      CLOUDY    24  15  68 W5        30.10R WCI  18
DANVILLE*      CLOUDY    25  18  74 CALM      30.06S
MATTOON        CLOUDY    29  19  66 CALM      30.10R
$$

ILZ079-100>102-150300-
SOUTHWEST ILLINOIS

CITY           SKY/WX    TMP DP  RH WIND       PRES   REMARKS
ALTON          CLOUDY    30  19  64 N6        30.13S WCI  24
BELLEVILLE     CLOUDY    31  18  58 N5        30.11S WCI  26
CAHOKIA*       CLOUDY    32  19  58 N8        30.13S WCI  25
SPARTA*        CLOUDY    30  22  71 CALM      30.14R
$$

ILZ064>066-069>071-074>076-080>082-084>086-088>090-092>094-150300-
SOUTH-CENTRAL ILLINOIS

CITY           SKY/WX    TMP DP  RH WIND       PRES   REMARKS
CARBONDALE     CLOUDY    31  21  66 N5        30.12S WCI  26
CAIRO*         CLOUDY    32  24  71 N3        30.13R
EFFINGHAM*     CLOUDY    31  22  71 CALM      30.13S
MARION         CLOUDY    32  21  64 CALM      30.12S
MT. VERNON     CLOUDY    31  21  66 VRB5      30.12S WCI  26
CENTRALIA*     CLOUDY    32  22  66 NW6       30.11S WCI  26
SALEM*         CLOUDY    32  20  61 NW6       30.12R WCI  26
METROPOLIS*    CLOUDY    33  22  63 N7        30.13R WCI  27
$$

ILZ067-068-072-073-078-083-087-091-150300-
SOUTHEAST ILLINOIS

CITY           SKY/WX    TMP DP  RH WIND       PRES   REMARKS
LAWRENCEVILLE  CLOUDY    31  22  69 W3        30.11S
FLORA*         CLOUDY    32  23  68 CALM      30.13R
HARRISBURG*    CLOUDY    32  22  67 N5        30.13S WCI  27
ROBINSON*      CLOUDY    29  22  77 W3        30.12S
CARMI*         CLOUDY    31  24  73 CALM      30.11S
$$

ABBREVIATIONS USED IN REMARKS
   TC - TEMPERATURE IN CELSIUS
  WCI - WIND CHILL INDEX
   HX - HEAT INDEX
  VSB - VISIBILITY
$$





USA.gov is the U.S. government's official web portal to all federal, state and local government web resources and services.